Find VisionCube

NORAD ID: 43822 Int'l Des: NNA 2018-099 Owner: KRAU Country: KR operational
LEOCIRCULARRETROGRADESSO

Live Position

Loading 3D Globe...

About VisionCube

Description loading...

Upcoming Passes

Passes for default location (London). Set your location on the main map for personalized predictions.

Altitude History

Loading altitude history...

Two-Line Element Set

1 43822U 18099BS 26105.42547208 .00002564 00000-0 14482-3 0 9991
2 43822 97.4388 156.9296 0007453 196.6134 163.4854 15.13980520396729
Epoch: Apr 15, 2026 • Age: 12 hours

Current Status

Altitude 535.9 km
Velocity 7.60 km/s
Sub-Earth Point -42.51°S, 152.07°E
Launch Date Dec 3, 2018
Age 7.3 years
Type other

Technical Details

Classification Payload
Mass 2.00 kg
Dry Mass 2.00 kg
Total Mass 2.00 kg
Length 0.20 m
Diameter 0.10 m
Span 0.20 m
Shape Box
Manufacturer KRAU
Bus Type Cubesat 2U
Phase Status In Orbit
Owner/State KRAU/KR

Most Searched